Weather in Knysna

South Africa     34°02′00″S   23°03′02″E
temp.,
°C
wind,
m/s
gust,
m/s
humid.,
%
clouds,
%
prec.,
mm/h
press.,
hPa
HPBL,
m
9 may, sun
sun923:00+12nnw239215 0.0 102589
02:00+12nnw22915 0.0 102453
05:00+12nnw22881 0.0 102343
08:00+12nnw228565 0.0 102457
11:00+19wsw265398 0.0 1024709
14:00+20wsw4852100 0.0 1022691
17:00+17wsw267299 0.0 1023254
20:00+14nw2281100 0.0 102552
10 may, mon
mon1023:00+15nw268378 0.0 1024258
02:00+14nw22857 0.0 102439
05:00+14nnw238727 0.0 102344
08:00+15n22835 0.0 102445
11:00+20wsw23590 0.0 1023744
14:00+21ssw34590 0.0 1021724
17:00+17sw23790 0.0 1022256
20:00+15nnw22910 0.0 102426
11 may, tue
tue1123:00+14nnw22910 0.0 102332
02:00+14n22900 0.0 102223
05:00+14n11900 0.0 102116
08:00+15n11820 0.0 102123
11:00+20ssw21600 0.0 1021529
14:00+20ssw32660 0.0 1019460
17:00+17s11780 0.0 101964
20:00+14nw11951 0.0 102040
12 may, wed
wed1223:00+13nw24952 0.0 1021117
02:00+13wnw26940 0.0 1021206
05:00+12nw36907 0.0 1022235
08:00+13nnw24855 0.0 1023135
11:00+18wsw35553 0.0 1022818
14:00+18sw34571 0.0 1021793
17:00+16ssw23760 0.0 1022270
20:00+12nw129430 0.0 102348
13 may, thu
thu1323:00+12nnw229328 0.0 102352
02:00+12n11945 0.0 102126
05:00+11n119485 0.0 102126
08:00+12n11917 0.0 102243
11:00+17s116666 0.0 1022625
14:00+18s32622 0.0 1020714
17:00+15se23720 0.0 1020316
20:00+11ne22900 0.0 102163